Location: Tucson
(32.2217°N, 110.9265°W)
Time: 16:49:06
(UTC-07:00)

Transit 2A Rocket - Pass Details

Date: 11 August 2022
Orbit: 593 x 908 km, 66.7° (Epoch: 26 September)

Event Time Altitude Azimuth Distance (km) Brightness Sun altitude
Rises 04:27:23 0° 331° (NNW) 2,888 8.0 -15.9°
Reaches altitude 10° 04:29:35 10° 329° (NNW) 2,009 7.2 -15.5°
Maximum altitude 04:34:04 70° 246° (WSW) 705 4.6 -14.6°
Drops below altitude 10° 04:38:56 10° 163° (SSE) 2,168 7.2 -13.7°
Sets 04:41:23 0° 161° (SSE) 3,137 8.1 -13.3°
